Location: NJAA Observatory
(40.6819°N, 74.8979°W)
Time: 06:22:18
(UTC-04:00)

Cosmos 1328 Rocket - Visible Passes

Search period start: 28 July 2015 00:00
Search period end: 07 August 2015 00:00
Orbit: 603 x 627 km, 82.5° (Epoch: 27 July)

Date Brightness Start Highest point End Pass type
(mag) Time Alt. Az. Time Alt. Az. Time Alt. Az.
28 Jul 3.5 05:04:40 10° S 05:09:00 79° W 05:13:24 10° N visible
29 Jul 6.2 03:45:14 10° ESE 03:47:44 16° E 03:50:25 10° NE visible
29 Jul 4.1 05:21:05 10° SSW 05:25:12 41° WNW 05:29:22 10° N visible
30 Jul 5.4 04:00:02 10° SSE 04:03:42 28° E 04:07:28 10° NNE visible
31 Jul 4.3 04:15:41 11° SSE 04:19:44 51° E 04:24:01 10° NNE visible
01 Aug 3.5 04:32:14 15° S 04:35:50 84° W 04:40:15 10° N visible
02 Aug 6.2 03:12:16 10° ESE 03:14:35 15° E 03:17:07 10° NE visible
02 Aug 4.0 04:48:47 16° SSW 04:52:02 44° WNW 04:56:15 10° N visible
03 Aug 5.4 03:28:09 16° SE 03:30:33 26° E 03:34:15 10° NNE visible
03 Aug 4.8 05:05:16 13° SW 05:08:21 25° WNW 05:11:57 10° NNW visible
04 Aug 4.3 03:44:37 28° SSE 03:46:34 48° E 03:50:50 10° NNE visible
04 Aug 5.5 05:22:16 10° WSW 05:24:46 14° WNW 05:27:07 10° NW visible
05 Aug 3.5 04:01:04 39° S 04:02:40 89° WSW 04:07:06 10° N visible
06 Aug 6.1 02:40:23 13° ESE 02:41:27 14° E 02:43:48 10° NE visible
06 Aug 3.9 04:17:28 35° SW 04:18:51 48° WNW 04:23:08 10° N visible
